| time (UTC) | temp C | wind direction | speed KPH | gust KPH | rain 1hr cm | rain 24hr cm | rain mn cm | humidity % | barometer mb |
| 20260507124225 | 6 | 243 | 4.8 | 11.3 | 0.00 | 0.00 | 0.00 | 90 | 1018.6 |
| 20260507123705 | 6 | 264 | 3.2 | 11.3 | 0.00 | 0.00 | 0.00 | 90 | 1018.6 |
| 20260507123205 | 6 | 290 | 3.2 | 4.8 | 0.00 | 0.00 | 0.00 | 90 | 1018.6 |
| 20260507122706 | 5 | 291 | 1.6 | 4.8 | 0.00 | 0.00 | 0.00 | 90 | 1018.4 |
| 20260507122205 | 5 | 292 | 0.0 | 3.2 | 0.00 | 0.00 | 0.00 | 89 | 1018.4 |
| 20260507121705 | 5 | 293 | 1.6 | 4.8 | 0.00 | 0.00 | 0.00 | 89 | 1018.3 |
| 20260507121205 | 5 | 293 | 0.0 | 4.8 | 0.00 | 0.00 | 0.00 | 89 | 1018.4 |
| 20260507120204 | 5 | 294 | 0.0 | 3.2 | 0.00 | 0.00 | 0.00 | 89 | 1018.5 |
| 20260507115705 | 5 | 294 | 0.0 | 0.0 | 0.00 | 0.00 | 0.00 | 88 | 1018.4 |
| 20260507115205 | 5 | 294 | 0.0 | 0.0 | 0.00 | 0.00 | 0.00 | 88 | 1018.5 |
| 20260507114705 | 5 | 294 | 0.0 | 0.0 | 0.00 | 0.00 | 0.00 | 88 | 1018.4 |
| 20260507114204 | 5 | 294 | 0.0 | 0.0 | 0.00 | 0.00 | 0.00 | 88 | 1018.3 |
| 20260507112704 | 5 | 294 | 0.0 | 0.0 | 0.00 | 0.03 | 0.00 | 87 | 1018.3 |
| 20260507111704 | 5 | 294 | 0.0 | 0.0 | 0.00 | 0.03 | 0.00 | 87 | 1018.3 |
| 20260507111205 | 5 | 294 | 0.0 | 0.0 | 0.00 | 0.03 | 0.00 | 87 | 1018.3 |
| 20260507110705 | 5 | 294 | 0.0 | 0.0 | 0.00 | 0.03 | 0.00 | 87 | 1018.3 |
| 20260507110205 | 5 | 294 | 0.0 | 0.0 | 0.00 | 0.03 | 0.00 | 87 | 1018.3 |
| 20260507105204 | 6 | 294 | 0.0 | 0.0 | 0.00 | 0.03 | 0.00 | 87 | 1018.3 |
| 20260507104705 | 6 | 294 | 0.0 | 1.6 | 0.00 | 0.03 | 0.00 | 87 | 1018.3 |
| 20260507104205 | 6 | 294 | 0.0 | 1.6 | 0.00 | 0.03 | 0.00 | 87 | 1018.3 |
| 20260507103705 | 6 | 294 | 0.0 | 3.2 | 0.00 | 0.03 | 0.00 | 87 | 1018.3 |
| 20260507103205 | 6 | 294 | 0.0 | 3.2 | 0.00 | 0.03 | 0.00 | 85 | 1018.5 |
| 20260507102705 | 6 | 294 | 1.6 | 3.2 | 0.00 | 0.03 | 0.00 | 85 | 1018.6 |
| 20260507101204 | 6 | 294 | 0.0 | 4.8 | 0.00 | 0.03 | 0.00 | 85 | 1018.6 |
| 20260507100706 | 6 | 294 | 1.6 | 3.2 | 0.00 | 0.03 | 0.00 | 85 | 1018.6 |
| 20260507100205 | 6 | 295 | 0.0 | 0.0 | 0.00 | 0.03 | 0.00 | 84 | 1018.6 |
| 20260507095705 | 6 | 295 | 0.0 | 3.2 | 0.00 | 0.03 | 0.00 | 84 | 1018.7 |
| 20260507095204 | 6 | 295 | 0.0 | 3.2 | 0.00 | 0.03 | 0.00 | 84 | 1018.7 |
| 20260507094704 | 6 | 295 | 1.6 | 3.2 | 0.00 | 0.03 | 0.00 | 84 | 1018.7 |
| 20260507094205 | 6 | 295 | 1.6 | 4.8 | 0.00 | 0.03 | 0.00 | 84 | 1018.7 |
| 20260507093705 | 6 | 295 | 1.6 | 4.8 | 0.00 | 0.03 | 0.00 | 83 | 1018.9 |
| 20260507093205 | 6 | 295 | 3.2 | 4.8 | 0.00 | 0.03 | 0.00 | 83 | 1018.9 |
| 20260507092204 | 7 | 295 | 3.2 | 9.7 | 0.00 | 0.03 | 0.00 | 82 | 1018.8 |
| 20260507091705 | 7 | 295 | 3.2 | 4.8 | 0.00 | 0.03 | 0.00 | 82 | 1018.8 |
| 20260507091205 | 7 | 295 | 4.8 | 9.7 | 0.00 | 0.03 | 0.00 | 82 | 1018.8 |
| 20260507090705 | 7 | 294 | 3.2 | 9.7 | 0.00 | 0.03 | 0.00 | 82 | 1018.9 |
| 20260507090205 | 7 | 294 | 3.2 | 9.7 | 0.00 | 0.03 | 0.00 | 82 | 1018.9 |
| 20260507085705 | 7 | 293 | 4.8 | 9.7 | 0.00 | 0.03 | 0.00 | 81 | 1018.9 |
| 20260507085204 | 7 | 294 | 3.2 | 9.7 | 0.00 | 0.03 | 0.00 | 82 | 1019.0 |
| 20260507084205 | 8 | 296 | 4.8 | 11.3 | 0.00 | 0.03 | 0.00 | 81 | 1018.9 |
| 20260507083705 | 8 | 355 | 3.2 | 9.7 | 0.00 | 0.03 | 0.00 | 81 | 1018.9 |
| 20260507083205 | 8 | 355 | 3.2 | 9.7 | 0.00 | 0.03 | 0.00 | 81 | 1018.9 |
| 20260507082205 | 8 | 355 | 3.2 | 9.7 | 0.00 | 0.05 | 0.00 | 81 | 1019.0 |
| 20260507081705 | 9 | 355 | 1.6 | 3.2 | 0.00 | 0.05 | 0.00 | 81 | 1019.1 |
| 20260507081205 | 9 | 355 | 1.6 | 11.3 | 0.00 | 0.05 | 0.00 | 82 | 1019.2 |
| 20260507080705 | 9 | 355 | 1.6 | 11.3 | 0.00 | 0.10 | 0.00 | 82 | 1019.1 |
| 20260507080205 | 9 | 355 | 4.8 | 11.3 | 0.00 | 0.10 | 0.00 | 82 | 1019.2 |
| 20260507075705 | 9 | 7 | 4.8 | 9.7 | 0.00 | 0.10 | 0.00 | 82 | 1019.3 |
| 20260507074205 | 9 | 15 | 1.6 | 3.2 | 0.00 | 0.13 | 0.00 | 82 | 1019.3 |
| 20260507073705 | 9 | 16 | 0.0 | 3.2 | 0.00 | 0.13 | 0.00 | 82 | 1019.3 |
| 20260507072727 | 9 | 16 | 1.6 | 1.6 | 0.00 | 0.13 | 0.00 | 81 | 1019.4 |
| 20260507072204 | 9 | 16 | 0.0 | 1.6 | 0.00 | 0.13 | 0.00 | 80 | 1019.4 |
| 20260507065705 | 9 | 16 | 1.6 | 3.2 | 0.00 | 0.18 | 0.00 | 77 | 1019.6 |
| 20260507065204 | 9 | 16 | 1.6 | 3.2 | 0.00 | 0.20 | 0.00 | 77 | 1019.7 |
| 20260507064704 | 9 | 16 | 0.0 | 4.8 | 0.00 | 0.20 | 0.00 | 77 | 1019.6 |
| 20260507064205 | 9 | 16 | 0.0 | 4.8 | 0.00 | 0.20 | 0.00 | 77 | 1019.7 |
| 20260507063704 | 9 | 16 | 1.6 | 4.8 | 0.00 | 0.25 | 0.00 | 77 | 1019.9 |
| 20260507063204 | 9 | 16 | 1.6 | 3.2 | 0.00 | 0.25 | 0.00 | 77 | 1019.9 |
| 20260507062705 | 9 | 16 | 1.6 | 1.6 | 0.00 | 0.28 | 0.00 | 76 | 1019.7 |
| 20260507062204 | 9 | 16 | 0.0 | 1.6 | 0.00 | 0.28 | 0.00 | 77 | 1019.7 |
| 20260507060704 | 10 | 16 | 1.6 | 3.2 | 0.00 | 0.30 | 0.00 | 75 | 1019.6 |
| 20260507060204 | 10 | 17 | 1.6 | 3.2 | 0.00 | 0.33 | 0.00 | 75 | 1019.6 |
| 20260507055704 | 10 | 17 | 0.0 | 1.6 | 0.00 | 0.33 | 0.00 | 75 | 1019.6 |
| 20260507055205 | 10 | 17 | 0.0 | 1.6 | 0.00 | 0.33 | 0.00 | 73 | 1019.6 |
| 20260507054705 | 10 | 17 | 0.0 | 0.0 | 0.00 | 0.33 | 0.00 | 73 | 1019.8 |
| 20260507054205 | 10 | 17 | 0.0 | 1.6 | 0.00 | 0.33 | 0.00 | 73 | 1019.8 |
| 20260507053704 | 10 | 17 | 0.0 | 1.6 | 0.00 | 0.33 | 0.00 | 72 | 1019.8 |
| 20260507053204 | 10 | 17 | 0.0 | 3.2 | 0.00 | 0.33 | 0.00 | 72 | 1019.8 |
| 20260507052704 | 10 | 17 | 1.6 | 3.2 | 0.00 | 0.33 | 0.00 | 72 | 1019.7 |
| 20260507052204 | 10 | 17 | 0.0 | 3.2 | 0.00 | 0.33 | 0.00 | 73 | 1019.8 |
| 20260507051704 | 10 | 17 | 0.0 | 1.6 | 0.00 | 0.33 | 0.00 | 73 | 1019.8 |
| 20260507051204 | 10 | 17 | 0.0 | 1.6 | 0.00 | 0.33 | 0.00 | 72 | 1019.7 |
| 20260507050705 | 10 | 17 | 0.0 | 1.6 | 0.00 | 0.33 | 0.00 | 71 | 1019.7 |
| 20260507050205 | 10 | 17 | 0.0 | 1.6 | 0.00 | 0.33 | 0.00 | 71 | 1019.8 |
| 20260507045704 | 10 | 17 | 0.0 | 3.2 | 0.00 | 0.33 | 0.33 | 71 | 1019.8 |
| 20260507045204 | 10 | 17 | 1.6 | 3.2 | 0.00 | 0.33 | 0.33 | 71 | 1019.7 |
| 20260507044704 | 10 | 17 | 0.0 | 3.2 | 0.00 | 0.33 | 0.33 | 72 | 1019.7 |
| 20260507043705 | 10 | 17 | 1.6 | 3.2 | 0.00 | 0.33 | 0.33 | 71 | 1019.8 |
| 20260507043206 | 10 | 17 | 0.0 | 0.0 | 0.00 | 0.33 | 0.33 | 71 | 1019.7 |
| 20260507042205 | 10 | 17 | 0.0 | 0.0 | 0.00 | 0.33 | 0.33 | 68 | 1019.6 |
| 20260507041708 | 10 | 17 | 0.0 | 0.0 | 0.00 | 0.33 | 0.33 | 68 | 1019.6 |
| 20260507041205 | 10 | 17 | 0.0 | 0.0 | 0.00 | 0.33 | 0.33 | 68 | 1019.5 |
| 20260507040705 | 10 | 17 | 0.0 | 0.0 | 0.00 | 0.33 | 0.33 | 68 | 1019.5 |
| 20260507035704 | 10 | 17 | 0.0 | 0.0 | 0.00 | 0.33 | 0.33 | 69 | 1019.6 |
| 20260507035205 | 10 | 17 | 0.0 | 0.0 | 0.00 | 0.33 | 0.33 | 69 | 1019.5 |
| 20260507034706 | 10 | 17 | 0.0 | 0.0 | 0.00 | 0.33 | 0.33 | 69 | 1019.5 |
| 20260507034204 | 10 | 17 | 0.0 | 0.0 | 0.00 | 0.33 | 0.33 | 70 | 1019.6 |
| 20260507033705 | 11 | 17 | 0.0 | 0.0 | 0.00 | 0.33 | 0.33 | 71 | 1019.7 |
| 20260507033205 | 11 | 17 | 0.0 | 0.0 | 0.00 | 0.33 | 0.33 | 70 | 1019.8 |
| 20260507032705 | 11 | 17 | 0.0 | 0.0 | 0.00 | 0.33 | 0.33 | 71 | 1019.7 |
| 20260507032205 | 11 | 17 | 0.0 | 0.0 | 0.00 | 0.33 | 0.33 | 70 | 1019.7 |
| 20260507031705 | 11 | 17 | 0.0 | 0.0 | 0.00 | 0.33 | 0.33 | 70 | 1019.6 |
| 20260507031205 | 11 | 17 | 0.0 | 0.0 | 0.00 | 0.33 | 0.33 | 69 | 1019.5 |
| 20260507030705 | 11 | 17 | 0.0 | 0.0 | 0.00 | 0.33 | 0.33 | 66 | 1019.4 |
| 20260507030204 | 11 | 17 | 0.0 | 0.0 | 0.00 | 0.33 | 0.33 | 68 | 1019.3 |
| 20260507025705 | 11 | 17 | 0.0 | 0.0 | 0.00 | 0.33 | 0.33 | 69 | 1019.5 |
| 20260507025205 | 11 | 17 | 0.0 | 0.0 | 0.00 | 0.33 | 0.33 | 68 | 1019.5 |
| 20260507023704 | 11 | 17 | 0.0 | 3.2 | 0.00 | 0.33 | 0.33 | 64 | 1019.2 |
| 20260507023213 | 11 | 17 | 1.6 | 4.8 | 0.00 | 0.33 | 0.33 | 64 | 1019.1 |
| 20260507022705 | 11 | 17 | 1.6 | 4.8 | 0.00 | 0.33 | 0.33 | 64 | 1019.2 |
| 20260507021705 | 11 | 17 | 0.0 | 3.2 | 0.00 | 0.33 | 0.33 | 64 | 1019.1 |
| 20260507020204 | 11 | 17 | 0.0 | 4.8 | 0.00 | 0.33 | 0.33 | 63 | 1019.0 |
| 20260507015214 | 12 | 19 | 0.0 | 0.0 | 0.00 | 0.33 | 0.33 | 65 | 1018.9 |
| 20260507014704 | 12 | 19 | 0.0 | 0.0 | 0.00 | 0.33 | 0.33 | 64 | 1018.8 |
| 20260507014205 | 12 | 19 | 0.0 | 0.0 | 0.00 | 0.33 | 0.33 | 61 | 1018.8 |
| 20260507013704 | 12 | 19 | 0.0 | 0.0 | 0.00 | 0.33 | 0.33 | 62 | 1018.7 |
| 20260507013205 | 12 | 19 | 0.0 | 1.6 | 0.00 | 0.33 | 0.33 | 62 | 1018.5 |
| 20260507012227 | 12 | 19 | 0.0 | 1.6 | 0.00 | 0.33 | 0.33 | 61 | 1018.4 |
| 20260507011704 | 12 | 19 | 0.0 | 1.6 | 0.00 | 0.33 | 0.33 | 60 | 1018.4 |
| 20260507010704 | 12 | 19 | 0.0 | 9.7 | 0.00 | 0.33 | 0.33 | 55 | 1018.3 |
| 20260507005704 | 13 | 18 | 1.6 | 9.7 | 0.00 | 0.33 | 0.33 | 53 | 1018.2 |
| 20260507005205 | 13 | 17 | 1.6 | 4.8 | 0.00 | 0.33 | 0.33 | 53 | 1018.3 |
| 20260507004704 | 13 | 17 | 1.6 | 3.2 | 0.00 | 0.33 | 0.33 | 53 | 1018.3 |
| 20260507004204 | 13 | 17 | 1.6 | 4.8 | 0.00 | 0.33 | 0.33 | 53 | 1018.3 |
| 20260507003704 | 13 | 17 | 1.6 | 9.7 | 0.00 | 0.33 | 0.33 | 53 | 1018.3 |
| 20260507003204 | 13 | 17 | 3.2 | 9.7 | 0.00 | 0.33 | 0.33 | 52 | 1018.3 |
| 20260507002705 | 13 | 26 | 1.6 | 9.7 | 0.00 | 0.33 | 0.33 | 51 | 1018.2 |
| 20260507002204 | 13 | 23 | 3.2 | 11.3 | 0.00 | 0.33 | 0.33 | 50 | 1018.2 |
| 20260507001704 | 13 | 30 | 4.8 | 12.9 | 0.00 | 0.33 | 0.33 | 50 | 1018.2 |
| 20260507001205 | 13 | 37 | 8.0 | 12.9 | 0.00 | 0.33 | 0.33 | 49 | 1018.3 |
| 20260507000712 | 13 | 25 | 8.0 | 12.9 | 0.00 | 0.33 | 0.33 | 49 | 1018.2 |
| 20260507000205 | 13 | 41 | 8.0 | 14.5 | 0.00 | 0.33 | 0.33 | 49 | 1018.3 |
| 20260506235704 | 13 | 35 | 8.0 | 14.5 | 0.00 | 0.33 | 0.33 | 49 | 1018.2 |
| 20260506235205 | 13 | 34 | 8.0 | 19.3 | 0.00 | 0.33 | 0.33 | 48 | 1018.2 |
| 20260506234705 | 14 | 16 | 9.7 | 19.3 | 0.00 | 0.33 | 0.33 | 48 | 1018.3 |
| 20260506233704 | 14 | 15 | 8.0 | 22.5 | 0.00 | 0.33 | 0.33 | 48 | 1018.2 |
| 20260506233204 | 14 | 3 | 9.7 | 22.5 | 0.00 | 0.33 | 0.33 | 48 | 1018.1 |
| 20260506232204 | 14 | 345 | 9.7 | 22.5 | 0.00 | 0.33 | 0.33 | 46 | 1018.0 |
| 20260506231705 | 15 | 356 | 9.7 | 22.5 | 0.00 | 0.33 | 0.33 | 46 | 1018.0 |
| 20260506231205 | 15 | 25 | 8.0 | 22.5 | 0.00 | 0.33 | 0.33 | 46 | 1017.9 |
| 20260506230704 | 15 | 20 | 8.0 | 22.5 | 0.00 | 0.33 | 0.33 | 46 | 1017.9 |
| 20260506230204 | 15 | 44 | 8.0 | 24.1 | 0.00 | 0.33 | 0.33 | 44 | 1018.0 |
| 20260506225704 | 15 | 20 | 11.3 | 24.1 | 0.00 | 0.33 | 0.33 | 45 | 1017.9 |
| 20260506225205 | 15 | 21 | 9.7 | 22.5 | 0.00 | 0.33 | 0.33 | 45 | 1017.9 |
| 20260506224204 | 15 | 36 | 8.0 | 14.5 | 0.00 | 0.33 | 0.33 | 45 | 1017.9 |
| 20260506223705 | 15 | 39 | 4.8 | 14.5 | 0.00 | 0.33 | 0.33 | 45 | 1017.9 |
| 20260506223204 | 15 | 351 | 8.0 | 14.5 | 0.00 | 0.33 | 0.33 | 46 | 1017.8 |
| 20260506222705 | 15 | 21 | 4.8 | 19.3 | 0.00 | 0.33 | 0.33 | 46 | 1017.8 |
| 20260506222212 | 15 | 36 | 8.0 | 19.3 | 0.00 | 0.33 | 0.33 | 45 | 1017.8 |
| 20260506221706 | 15 | 55 | 4.8 | 19.3 | 0.00 | 0.33 | 0.33 | 46 | 1017.8 |
| 20260506220704 | 15 | 347 | 9.7 | 19.3 | 0.00 | 0.33 | 0.33 | 48 | 1017.7 |
| 20260506220204 | 15 | 355 | 8.0 | 19.3 | 0.00 | 0.33 | 0.33 | 47 | 1017.9 |
| 20260506215705 | 15 | 14 | 8.0 | 19.3 | 0.00 | 0.33 | 0.33 | 44 | 1017.8 |
| 20260506214705 | 15 | 55 | 8.0 | 19.3 | 0.00 | 0.33 | 0.33 | 43 | 1017.9 |
| 20260506214204 | 16 | 55 | 9.7 | 16.1 | 0.00 | 0.33 | 0.33 | 42 | 1017.9 |
| 20260506213705 | 16 | 46 | 4.8 | 16.1 | 0.00 | 0.33 | 0.33 | 45 | 1017.9 |
| 20260506213204 | 15 | 76 | 4.8 | 16.1 | 0.00 | 0.33 | 0.33 | 45 | 1017.9 |
| 20260506212704 | 14 | 68 | 8.0 | 25.7 | 0.00 | 0.33 | 0.33 | 45 | 1018.2 |
| 20260506212204 | 15 | 68 | 6.4 | 25.7 | 0.00 | 0.33 | 0.33 | 43 | 1018.1 |
| 20260506211704 | 15 | 50 | 4.8 | 25.7 | 0.00 | 0.33 | 0.33 | 48 | 1018.2 |
| 20260506210704 | 15 | 51 | 9.7 | 24.1 | 0.00 | 0.33 | 0.33 | 43 | 1018.3 |
| 20260506205708 | 15 | 101 | 4.8 | 22.5 | 0.00 | 0.33 | 0.33 | 45 | 1018.2 |
| 20260506205204 | 15 | 46 | 9.7 | 22.5 | 0.00 | 0.33 | 0.33 | 44 | 1018.3 |
| 20260506204704 | 15 | 96 | 9.7 | 22.5 | 0.00 | 0.33 | 0.33 | 44 | 1018.4 |
| 20260506204204 | 16 | 46 | 4.8 | 14.5 | 0.00 | 0.33 | 0.33 | 46 | 1018.5 |
| 20260506203705 | 16 | 3 | 8.0 | 14.5 | 0.00 | 0.33 | 0.33 | 48 | 1018.6 |
| 20260506203204 | 15 | 72 | 8.0 | 24.1 | 0.00 | 0.33 | 0.33 | 47 | 1018.7 |
| 20260506202205 | 15 | 34 | 12.9 | 29.0 | 0.00 | 0.33 | 0.33 | 44 | 1018.9 |
| 20260506201705 | 15 | 63 | 9.7 | 22.5 | 0.00 | 0.33 | 0.33 | 47 | 1018.9 |
| 20260506201205 | 14 | 52 | 9.7 | 22.5 | 0.00 | 0.33 | 0.33 | 44 | 1019.1 |
| 20260506200204 | 15 | 6 | 9.7 | 24.1 | 0.00 | 0.33 | 0.33 | 46 | 1019.2 |
| 20260506195704 | 15 | 64 | 4.8 | 24.1 | 0.00 | 0.33 | 0.33 | 45 | 1019.2 |
| 20260506195205 | 15 | 114 | 8.0 | 24.1 | 0.00 | 0.33 | 0.33 | 47 | 1019.3 |
| 20260506194705 | 15 | 24 | 9.7 | 24.1 | 0.00 | 0.33 | 0.33 | 44 | 1019.3 |
| 20260506194205 | 15 | 34 | 14.5 | 25.7 | 0.00 | 0.33 | 0.33 | 45 | 1019.4 |
| 20260506192704 | 15 | 17 | 11.3 | 22.5 | 0.00 | 0.33 | 0.33 | 46 | 1019.5 |
| 20260506191705 | 14 | 64 | 9.7 | 22.5 | 0.00 | 0.33 | 0.33 | 45 | 1019.5 |
| 20260506191205 | 14 | 44 | 11.3 | 27.4 | 0.00 | 0.33 | 0.33 | 45 | 1019.5 |
| 20260506190205 | 14 | 45 | 11.3 | 25.7 | 0.00 | 0.33 | 0.33 | 47 | 1019.4 |
| 20260506185705 | 15 | 49 | 11.3 | 25.7 | 0.00 | 0.33 | 0.33 | 46 | 1019.3 |
| 20260506184705 | 15 | 38 | 9.7 | 25.7 | 0.00 | 0.33 | 0.33 | 49 | 1019.3 |
| 20260506184204 | 14 | 36 | 11.3 | 25.7 | 0.00 | 0.33 | 0.33 | 47 | 1019.4 |
| 20260506183705 | 14 | 60 | 6.4 | 35.4 | 0.00 | 0.33 | 0.33 | 48 | 1019.4 |
| 20260506183205 | 14 | 54 | 16.1 | 35.4 | 0.00 | 0.33 | 0.33 | 48 | 1019.4 |
| 20260506182704 | 13 | 39 | 14.5 | 29.0 | 0.00 | 0.33 | 0.33 | 48 | 1019.3 |
| 20260506182204 | 13 | 29 | 12.9 | 27.4 | 0.00 | 0.33 | 0.33 | 52 | 1019.4 |
| 20260506181704 | 13 | 7 | 12.9 | 29.0 | 0.00 | 0.33 | 0.33 | 50 | 1019.5 |
| 20260506181205 | 13 | 102 | 14.5 | 29.0 | 0.00 | 0.33 | 0.33 | 46 | 1019.6 |
| 20260506175705 | 13 | 81 | 8.0 | 27.4 | 0.00 | 0.33 | 0.33 | 51 | 1020.0 |
| 20260506175204 | 12 | 64 | 14.5 | 24.1 | 0.00 | 0.33 | 0.33 | 51 | 1020.1 |
| 20260506174704 | 13 | 38 | 9.7 | 25.7 | 0.00 | 0.33 | 0.33 | 59 | 1020.2 |
| 20260506174205 | 12 | 66 | 9.7 | 25.7 | 0.00 | 0.33 | 0.33 | 55 | 1020.1 |
| 20260506173705 | 13 | 6 | 11.3 | 24.1 | 0.00 | 0.33 | 0.33 | 55 | 1020.2 |
| 20260506173205 | 13 | 353 | 9.7 | 22.5 | 0.00 | 0.33 | 0.33 | 58 | 1020.2 |
| 20260506172704 | 12 | 69 | 11.3 | 24.1 | 0.00 | 0.33 | 0.33 | 58 | 1020.2 |
| 20260506172204 | 12 | 34 | 11.3 | 27.4 | 0.00 | 0.33 | 0.33 | 60 | 1020.2 |
| 20260506171704 | 12 | 4 | 11.3 | 27.4 | 0.00 | 0.33 | 0.33 | 62 | 1020.3 |
| 20260506171205 | 12 | 20 | 8.0 | 27.4 | 0.00 | 0.33 | 0.33 | 63 | 1020.3 |
| 20260506170704 | 12 | 38 | 11.3 | 27.4 | 0.00 | 0.33 | 0.33 | 63 | 1020.3 |
| 20260506170205 | 12 | 65 | 11.3 | 29.0 | 0.00 | 0.33 | 0.33 | 62 | 1020.3 |
| 20260506165704 | 12 | 68 | 11.3 | 29.0 | 0.00 | 0.33 | 0.33 | 61 | 1020.2 |
| 20260506165204 | 12 | 26 | 9.7 | 24.1 | 0.00 | 0.33 | 0.33 | 68 | 1020.1 |
| 20260506164204 | 12 | 353 | 11.3 | 24.1 | 0.00 | 0.33 | 0.33 | 69 | 1020.1 |
| 20260506163705 | 12 | 2 | 9.7 | 24.1 | 0.00 | 0.33 | 0.33 | 68 | 1020.3 |
| 20260506163204 | 11 | 21 | 8.0 | 24.1 | 0.00 | 0.33 | 0.33 | 70 | 1020.2 |
| 20260506162705 | 11 | 46 | 9.7 | 25.7 | 0.00 | 0.33 | 0.33 | 71 | 1020.1 |
| 20260506162204 | 11 | 41 | 11.3 | 25.7 | 0.00 | 0.33 | 0.33 | 69 | 1020.0 |
| 20260506161705 | 11 | 32 | 9.7 | 22.5 | 0.00 | 0.33 | 0.33 | 72 | 1019.5 |
| 20260506161204 | 11 | 14 | 11.3 | 22.5 | 0.00 | 0.33 | 0.33 | 76 | 1019.6 |
| 20260506160705 | 10 | 37 | 9.7 | 24.1 | 0.00 | 0.33 | 0.33 | 78 | 1019.9 |
| 20260506160204 | 10 | 22 | 12.9 | 24.1 | 0.00 | 0.33 | 0.33 | 77 | 1020.0 |
| 20260506155704 | 10 | 8 | 11.3 | 24.1 | 0.00 | 0.33 | 0.33 | 77 | 1020.1 |
| 20260506155205 | 10 | 25 | 12.9 | 24.1 | 0.00 | 0.33 | 0.33 | 77 | 1020.0 |
| 20260506154705 | 9 | 22 | 8.0 | 24.1 | 0.00 | 0.33 | 0.33 | 78 | 1020.2 |
| 20260506153705 | 9 | 16 | 11.3 | 24.1 | 0.00 | 0.33 | 0.33 | 78 | 1020.1 |
| 20260506153204 | 8 | 28 | 6.4 | 16.1 | 0.00 | 0.33 | 0.33 | 78 | 1020.1 |
| 20260506152705 | 8 | 28 | 9.7 | 16.1 | 0.00 | 0.33 | 0.33 | 80 | 1020.2 |
| 20260506152205 | 8 | 352 | 6.4 | 16.1 | 0.00 | 0.33 | 0.33 | 82 | 1020.1 |
| 20260506151704 | 8 | 24 | 8.0 | 16.1 | 0.00 | 0.33 | 0.33 | 82 | 1020.0 |
| 20260506151205 | 8 | 26 | 4.8 | 14.5 | 0.00 | 0.33 | 0.33 | 84 | 1019.8 |
| 20260506150704 | 8 | 34 | 8.0 | 14.5 | 0.00 | 0.33 | 0.33 | 84 | 1019.8 |
| 20260506150204 | 8 | 2 | 8.0 | 14.5 | 0.00 | 0.33 | 0.33 | 85 | 1020.0 |
| 20260506145705 | 8 | 21 | 4.8 | 14.5 | 0.00 | 0.33 | 0.33 | 87 | 1019.9 |
| 20260506145204 | 8 | 346 | 3.2 | 14.5 | 0.00 | 0.33 | 0.33 | 87 | 1020.0 |
| 20260506144704 | 8 | 343 | 8.0 | 14.5 | 0.00 | 0.33 | 0.33 | 87 | 1020.0 |
| 20260506144204 | 8 | 24 | 3.2 | 12.9 | 0.00 | 0.33 | 0.33 | 88 | 1020.0 |
| 20260506143704 | 8 | 356 | 4.8 | 12.9 | 0.00 | 0.33 | 0.33 | 88 | 1019.9 |
| 20260506143204 | 7 | 350 | 6.4 | 12.9 | 0.00 | 0.33 | 0.33 | 88 | 1019.7 |
| 20260506142704 | 7 | 13 | 6.4 | 14.5 | 0.00 | 0.33 | 0.33 | 88 | 1019.7 |
| 20260506141705 | 7 | 16 | 6.4 | 14.5 | 0.00 | 0.33 | 0.33 | 89 | 1019.2 |
| 20260506141204 | 7 | 32 | 6.4 | 14.5 | 0.00 | 0.33 | 0.33 | 89 | 1019.6 |
| 20260506140704 | 7 | 4 | 4.8 | 14.5 | 0.00 | 0.33 | 0.33 | 89 | 1020.0 |
| 20260506140204 | 7 | 6 | 6.4 | 11.3 | 0.00 | 0.33 | 0.33 | 90 | 1019.9 |
| 20260506135204 | 7 | 40 | 3.2 | 9.7 | 0.00 | 0.33 | 0.33 | 90 | 1019.7 |
| 20260506134704 | 7 | 43 | 1.6 | 4.8 | 0.00 | 0.33 | 0.33 | 90 | 1019.7 |
| 20260506134204 | 7 | 43 | 3.2 | 9.7 | 0.00 | 0.33 | 0.33 | 90 | 1019.6 |
| 20260506133205 | 7 | 48 | 1.6 | 3.2 | 0.00 | 0.33 | 0.33 | 90 | 1019.1 |
| 20260506132704 | 7 | 48 | 1.6 | 3.2 | 0.00 | 0.33 | 0.33 | 90 | 1019.2 |
| 20260506132204 | 7 | 48 | 1.6 | 9.7 | 0.00 | 0.33 | 0.33 | 90 | 1019.4 |
| 20260506131704 | 7 | 48 | 3.2 | 9.7 | 0.00 | 0.33 | 0.33 | 90 | 1019.2 |
| 20260506131204 | 6 | 49 | 0.0 | 3.2 | 0.00 | 0.33 | 0.33 | 90 | 1019.5 |
| 20260506130704 | 6 | 49 | 0.0 | 3.2 | 0.00 | 0.33 | 0.33 | 90 | 1019.5 |
| 20260506130204 | 6 | 49 | 0.0 | 3.2 | 0.00 | 0.33 | 0.33 | 90 | 1019.4 |
| 20260506125704 | 6 | 49 | 0.0 | 3.2 | 0.00 | 0.33 | 0.33 | 90 | 1019.2 |
| 20260506125204 | 6 | 49 | 1.6 | 4.8 | 0.00 | 0.33 | 0.33 | 91 | 1019.3 |